Fairbanks Ft. Wainwright, AK

7:05 PM AKDT on October 17, 2017 (GMT -0800)
Ladd Army Air Field

Weather History for PAFB - July, 2013

Change the Weather History Date:

Sunday, July 28, 2013

  Actual Average Record
Temperature  
Mean Temperature 72 °F -  
Max Temperature 88 °F 67 °F 88 °F (2013)
Min Temperature 55 °F 51 °F 39 °F (2000)
Cooling Degree Days 6    
Growing Degree Days 22 (Base 50)    
Moisture  
Dew Point 51 °F    
Average Humidity 50    
Maximum Humidity 81    
Minimum Humidity 24    
Precipitation  
Precipitation 0.00 in - - ()
Sea Level Pressure  
Sea Level Pressure 30.14 in    
Wind  
Wind Speed 4 mph (NW)    
Max Wind Speed 13 mph    
Max Gust Speed 21 mph    
Visibility 10 miles    
Events Thunderstorm    
Averages and records for this station are not official NWS values.
T = Trace of Precipitation, MM = Missing Value Source: NWS Daily Summary

Daily Weather History Graph

Daily Weather History Graph

Search for Another Location

Airport or City:

Trip Planner

Search our weather history database for the weather conditions in past years. The results will help you decide how hot, cold, wet, or windy it might be!

Date:

Astronomy

Jul. 28, 2013 Rise Set
Actual Time 4:37 AM AKDT 11:13 PM AKDT
Civil Twilight 2:32 AM AKDT 1:09 AM AKDT
Nautical Twilight Sun does not rise Sun does not rise
Astronomical Twilight Sun does not rise Sun does not rise
Moon 11:21 PM AKDT (7/28) 2:44 PM AKDT (7/28)
Length of Visible Light 22h 37m
Length of Day
18h 35m
Waning Gibbous, 59% of the Moon is Illuminated
Jul 28
Waning Gibbous
Jul 29
Last Quarter
Aug 6
New
Aug 14
First Quarter
Aug 20
Full

Hourly Weather History & Observations

Time (AKDT) Temp. Heat Index Dew Point Humidity Pressure Visibility Wind Dir Wind Speed Gust Speed Precip Events Conditions
12:56 AM 62.1 °F - 54.0 °F 75% 30.21 in 10.0 mi Calm Calm - N/A   Clear
1:56 AM 59.0 °F - 53.1 °F 81% 30.21 in 10.0 mi East 3.5 mph - N/A   Clear
2:56 AM 60.1 °F - 53.1 °F 78% 30.21 in 10.0 mi East 6.9 mph - N/A   Clear
3:56 AM 57.9 °F - 52.0 °F 81% 30.21 in 10.0 mi ENE 6.9 mph - N/A   Clear
4:56 AM 57.0 °F - 51.1 °F 81% 30.21 in 10.0 mi Calm Calm - N/A   Clear
5:56 AM 55.9 °F - 50.0 °F 80% 30.21 in 10.0 mi ENE 3.5 mph - N/A   Clear
6:56 AM 57.0 °F - 51.1 °F 81% 30.21 in 10.0 mi ENE 4.6 mph - N/A   Clear
7:56 AM 61.0 °F - 52.0 °F 72% 30.21 in 10.0 mi East 4.6 mph - N/A   Clear
8:56 AM 64.9 °F - 52.0 °F 63% 30.21 in 10.0 mi ESE 3.5 mph - N/A   Clear
9:56 AM 69.1 °F - 52.0 °F 54% 30.20 in 10.0 mi Calm Calm - N/A   Clear
10:56 AM 72.0 °F - 52.0 °F 49% 30.19 in 10.0 mi Calm Calm - N/A   Clear
11:56 AM 75.0 °F - 53.1 °F 46% 30.18 in 10.0 mi SSE 3.5 mph - N/A   Clear
12:56 PM 78.1 °F - 53.1 °F 42% 30.17 in 10.0 mi SW 5.8 mph - N/A   Clear
1:56 PM 82.0 °F 81.2 °F 53.1 °F 37% 30.15 in 10.0 mi WSW 6.9 mph - N/A   Clear
2:56 PM 84.9 °F 83.2 °F 53.1 °F 33% 30.13 in 10.0 mi Variable 4.6 mph - N/A   Clear
3:56 PM 87.1 °F - 48.0 °F 26% 30.11 in 10.0 mi West 10.4 mph 17.3 mph N/A   Clear
4:56 PM 87.1 °F - 48.9 °F 27% 30.10 in 10.0 mi West 12.7 mph - N/A   Clear
5:56 PM 88.0 °F - 46.9 °F 24% 30.08 in 10.0 mi NW 10.4 mph 18.4 mph N/A   Clear
6:56 PM 87.1 °F - 48.0 °F 26% 30.06 in 10.0 mi WNW 8.1 mph - N/A   Clear
7:56 PM 86.0 °F - 48.9 °F 28% 30.05 in 10.0 mi WSW 4.6 mph - N/A   Clear
8:56 PM 86.0 °F - 48.9 °F 28% 30.04 in 10.0 mi Calm Calm - N/A   Clear
9:56 PM 82.9 °F - 48.0 °F 29% 30.04 in 10.0 mi WNW 4.6 mph - N/A   Clear
10:56 PM 79.0 °F - 50.0 °F 36% 30.05 in 10.0 mi NW 11.5 mph 20.7 mph N/A   Clear
11:31 PM 78.8 °F - 51.8 °F 39% 30.05 in 10.0 mi NW 8.1 mph - N/A Thunderstorm Thunderstorm
11:56 PM 75.9 °F - 53.1 °F 45% 30.05 in 10.0 mi WNW 5.8 mph - N/A   Clear